WB5MTX Weather Reports


Display with metric or nautical units.
time (UTC)temp
F
wind
direction
speed
MPH
gust
MPH
rain 1hr
in
rain 24hr
in
rain mn
in
humidity
%
barometer
mb
20260506000056 78 0 0.0 11.0 0.00 0.00 0.00 59 1005.3
20260505234552 79 0 0.0 11.0 0.00 0.00 0.00 58 1004.8
20260505233104 80 319 3.0 10.0 0.00 0.00 0.00 58 1004.6
20260505231553 82 330 2.0 13.0 0.00 0.00 0.00 58 1004.4
20260505230057 85 319 1.0 11.0 0.00 0.00 0.00 52 1004.2
20260505224559 86 0 2.0 10.0 0.00 0.00 0.00 48 1004.2
20260505223055 87 327 2.0 10.0 0.00 0.00 0.00 46 1003.9
20260505221556 92 0 0.0 3.0 0.00 0.00 0.00 43 1003.8
20260505214633 91 269 0.0 5.0 0.00 0.00 0.00 45 1003.7
20260505213116 92 0 2.0 7.0 0.00 0.00 0.00 43 1003.7
20260505211556 92 0 0.0 9.0 0.00 0.00 0.00 42 1003.7
20260505210055 93 0 1.0 8.0 0.00 0.00 0.00 41 1004.0
20260505204556 93 0 0.0 7.0 0.00 0.00 0.00 45 1004.2
20260505203056 91 267 1.0 7.0 0.00 0.00 0.00 44 1004.3
20260505201559 90 266 4.0 11.0 0.00 0.00 0.00 48 1004.5
20260505200056 91 296 1.0 8.0 0.00 0.00 0.00 50 1004.5
20260505194553 90 240 2.0 10.0 0.00 0.00 0.00 49 1004.6
20260505193053 89 0 2.0 14.0 0.00 0.00 0.00 50 1004.7
20260505191605 88 278 3.0 12.0 0.00 0.00 0.00 51 1004.8
20260505184551 86 225 3.0 15.0 0.00 0.00 0.00 56 1004.8
20260505183114 86 292 1.0 11.0 0.00 0.00 0.00 61 1005.0
20260505181553 84 223 3.0 15.0 0.00 0.00 0.00 61 1005.2
20260505180057 84 242 3.0 14.0 0.00 0.00 0.00 65 1005.2
20260505174609 83 0 0.0 8.0 0.00 0.00 0.00 68 1005.2
20260505173054 82 0 4.0 14.0 0.00 0.00 0.00 69 1005.3
20260505171558 80 189 2.0 15.0 0.00 0.00 0.00 70 1005.3
20260505170058 80 0 2.0 15.0 0.00 0.00 0.00 71 1005.2
20260505164557 80 0 2.0 12.0 0.00 0.00 0.00 71 1005.3
20260505163053 79 215 6.0 16.0 0.00 0.00 0.00 71 1005.1
20260505161621 78 0 3.0 16.0 0.00 0.00 0.00 74 1004.8
20260505153053 75 233 2.0 13.0 0.00 0.00 0.00 78 1005.0
20260505151606 74 221 3.0 15.0 0.00 0.00 0.00 79 1005.0
20260505124555 69 209 4.0 15.0 0.00 0.00 0.00 87 1004.3
20260505123054 69 228 2.0 15.0 0.00 0.00 0.00 87 1004.1
20260505121553 69 0 2.0 14.0 0.00 0.00 0.00 86 1004.0
20260505120110 69 0 1.0 10.0 0.00 0.00 0.00 86 1004.0
20260505114553 69 134 0.0 11.0 0.00 0.00 0.00 87 1003.7
20260505113052 69 164 3.0 12.0 0.00 0.00 0.00 87 1003.8
20260505111552 69 204 3.0 14.0 0.00 0.00 0.00 87 1003.7
20260505101554 68 0 3.0 14.0 0.00 0.00 0.00 87 1003.6
20260505100100 68 0 0.0 12.0 0.00 0.00 0.00 87 1003.7
20260505094556 68 0 2.0 11.0 0.00 0.00 0.00 87 1003.7
20260505093053 68 129 1.0 14.0 0.00 0.00 0.00 87 1003.9
20260505091552 68 0 0.0 8.0 0.00 0.00 0.00 87 1004.0
20260505090053 68 209 0.0 12.0 0.00 0.00 0.00 87 1004.3
20260505084554 69 0 0.0 10.0 0.00 0.00 0.00 86 1004.3
20260505083054 69 0 1.0 16.0 0.00 0.00 0.00 85 1004.3
20260505081604 69 220 1.0 12.0 0.00 0.00 0.00 84 1004.3
20260505080053 70 225 0.0 12.0 0.00 0.00 0.00 83 1004.2
20260505074558 70 212 0.0 11.0 0.00 0.00 0.00 82 1004.3
20260505073110 70 0 3.0 15.0 0.00 0.00 0.00 81 1004.6
20260505071603 70 0 0.0 19.0 0.00 0.00 0.00 80 1004.8
20260505070055 70 145 2.0 14.0 0.00 0.00 0.00 79 1005.1
20260505064556 70 0 0.0 11.0 0.00 0.00 0.00 78 1005.2
20260505063054 71 223 2.0 11.0 0.00 0.00 0.00 78 1005.4
20260505061609 71 184 3.0 15.0 0.00 0.00 0.00 77 1005.4
20260505054622 72 158 1.0 10.0 0.00 0.00 0.00 76 1005.4
20260505053108 72 0 2.0 13.0 0.00 0.00 0.00 76 1005.2
20260505051601 72 0 1.0 10.0 0.00 0.00 0.00 76 1005.2
20260505041557 73 232 2.0 15.0 0.00 0.00 0.00 73 1005.4
20260505040056 73 218 2.0 12.0 0.00 0.00 0.00 73 1005.5
20260505034554 74 179 1.0 11.0 0.00 0.00 0.00 73 1005.5
20260505033052 74 196 2.0 14.0 0.00 0.00 0.00 72 1005.6
20260505031607 74 232 2.0 15.0 0.00 0.00 0.00 72 1005.6
20260505030053 74 164 2.0 16.0 0.00 0.00 0.00 71 1005.5
20260505024552 74 188 1.0 21.0 0.00 0.00 0.00 71 1005.8
20260505023108 74 213 0.0 11.0 0.00 0.00 0.00 71 1005.7
20260505021552 74 0 0.0 11.0 0.00 0.00 0.00 71 1005.6
20260505020054 75 190 0.0 7.0 0.00 0.00 0.00 71 1005.4
20260505014601 75 0 1.0 8.0 0.00 0.00 0.00 71 1005.4
20260505013106 75 174 1.0 9.0 0.00 0.00 0.00 70 1005.4
20260505011554 75 0 0.0 10.0 0.00 0.00 0.00 70 1005.4
20260505010052 76 0 1.0 11.0 0.00 0.00 0.00 69 1005.3
20260505004557 76 144 2.0 9.0 0.00 0.00 0.00 68 1005.5
20260505003051 77 0 1.0 9.0 0.00 0.00 0.00 67 1005.5
20260505001554 77 0 0.0 9.0 0.00 0.00 0.00 67 1005.6